Regional Weather Roundup
Issued by NWS

Home | Current Version | Previous Version | Graphics & Text | Print | Product List | Glossary On
Versions: 1 2 3 4 5 6 7 8 9 10 11 12 13 14 15 16 17 18 19 20 21 22 23 24 25 26 27
000
ASUS45 KBOI 251310
RWRID

IDAHO REGIONAL WEATHER ROUNDUP
NATIONAL WEATHER SERVICE BOISE ID
700 AM MDT THU AUG 25 2016

NOTE: "FAIR" INDICATES FEW OR NO CLOUDS BELOW 12000 FEET
WITH NO SIGNIFICANT WEATHER AND/OR OBSTRUCTIONS TO VISIBILITY

IDZ012-014-251400-
SOUTHWEST IDAHO


CITY           SKY/WX    TMP DP  RH WIND       PRES   REMARKS
BOISE          CLEAR     57  33  40 SE9       30.11R
CALDWELL       CLEAR     48  42  80 NE5       30.10R
MOUNTAIN HOME  CLEAR     54  33  44 E7        30.12R
$$

IDZ016-017-251400-
SOUTHCENTRAL IDAHO


CITY           SKY/WX    TMP DP  RH WIND       PRES   REMARKS
JEROME         CLEAR     51  37  58 E15       30.16S
TWIN FALLS     CLEAR     53  36  52 E13       30.17R
$$

IDZ019>023-251400-
SOUTHEAST IDAHO


CITY           SKY/WX    TMP DP  RH WIND       PRES   REMARKS
IDAHO FALLS    PTCLDY    42  34  73 N10       30.23S
POCATELLO      CLEAR     45  36  70 NE8       30.21R
REXBURG        CLEAR     42  35  76 NE6       30.24R
$$

IDZ006-010-011-018-031-032-251400-
CENTRAL IDAHO MOUNTAINS


CITY           SKY/WX    TMP DP  RH WIND       PRES   REMARKS
MCCALL         CLEAR     44  34  67 CALM      30.21
HAILEY         CLEAR     45  32  61 NW9       30.24R
STANLEY          N/A     32  26  78 CALM      30.30S
SALMON         CLEAR     43  30  61 CALM      30.27S
CHALLIS        CLEAR     45  31  58 SE3       30.26R
$$

IDZ002-004-006-007-026-251400-
NORTHERN IDAHO


CITY           SKY/WX    TMP DP  RH WIND       PRES   REMARKS
LEWISTON       CLEAR     59  41  51 CALM      30.14R
LOWELL           N/A     49  44  83 N5        30.20
COEUR D`ALENE  CLEAR     54  41  62 NE10      30.18S
MULLAN PASS    CLEAR     46  31  55 SE7       30.31S
$$




USA.gov is the U.S. government's official web portal to all federal, state and local government web resources and services.